DW8785 Weather Reports


time (UTC)temp
F
wind
direction
speed
knots
gust
knots
rain 1hr
in
rain 24hr
in
rain mn
in
humidity
%
barometer
mb
20260506234530 50 357 15.6 0.0 0.00 0.00 0.00 77 1009.3
20260506233018 51 357 15.6 0.0 0.00 0.00 0.00 76 1009.6
20260506231514 50 275 12.2 0.0 0.00 0.00 0.00 80 1009.3
20260506230011 50 302 13.9 0.0 0.00 0.00 0.00 80 1009.5
20260506224507 49 282 12.2 0.0 0.00 0.00 0.00 88 1009.8
20260506223101 49 353 10.4 0.0 0.00 0.00 0.00 89 1009.7
20260506221556 48 198 9.6 0.0 0.00 0.00 0.00 96 1009.8
20260506214548 48 353 8.7 0.0 0.00 0.00 2.14 98 1009.8
20260506213045 49 188 7.8 0.0 0.00 0.00 2.14 97 1009.9
20260506211540 49 186 7.0 0.0 0.00 0.00 2.14 96 1010.1
20260506210036 50 189 7.0 0.0 0.00 0.00 2.14 93 1010.0
20260506204534 50 356 9.6 0.0 0.00 0.00 2.14 89 1009.6
20260506203034 51 356 12.2 0.0 0.00 0.00 2.14 84 1009.6
20260506201524 51 354 11.3 0.0 0.00 0.00 2.14 87 1009.5
20260506200024 51 354 11.3 0.0 0.00 0.00 2.14 88 1009.2
20260506194516 52 354 13.0 0.0 0.00 0.00 2.14 85 1009.1
20260506193010 52 189 13.0 0.0 0.00 0.00 2.14 84 1008.6
20260506191507 52 353 13.9 0.0 0.00 0.00 2.14 83 1008.3
20260506190004 52 352 11.3 0.0 0.00 0.00 2.14 85 1008.1
20260506184602 52 353 9.6 0.0 0.00 0.00 2.14 87 1008.1
20260506183059 53 352 8.7 0.0 0.00 0.00 2.14 87 1008.0
20260506181556 53 340 9.6 0.0 0.00 0.00 2.14 89 1008.0
20260506180047 53 272 11.3 0.0 0.00 0.00 2.14 89 1008.0
20260506174544 53 285 9.6 0.0 0.00 0.00 2.14 91 1007.8
20260506173047 53 352 8.7 0.0 0.00 0.00 2.14 92 1008.0
20260506171535 53 278 7.0 0.0 0.00 0.00 2.13 97 1007.8
20260506170027 53 222 6.1 0.0 0.00 0.00 2.13 97 1007.9
20260506164524 53 352 9.6 0.0 0.00 0.00 2.12 94 1007.9
20260506163037 53 272 11.3 0.0 0.00 0.00 2.11 91 1007.7
20260506161515 53 352 6.1 0.0 0.00 0.00 2.10 97 1007.8
20260506160010 54 198 4.3 0.0 0.00 0.00 2.09 95 1007.8
20260506154525 54 196 3.5 0.0 0.00 0.00 2.08 93 1007.8
20260506153001 56 182 7.0 0.0 0.00 0.00 2.08 88 1007.7
20260506151556 55 299 4.3 0.0 0.00 0.00 2.08 88 1007.7
20260506150054 56 203 11.3 0.0 0.00 0.00 2.08 88 1007.6
20260506144552 55 352 13.9 0.0 0.00 0.00 2.08 88 1007.3
20260506143046 52 278 16.5 0.0 0.00 0.00 2.08 90 1007.7
20260506141542 52 352 16.5 0.0 0.00 0.00 2.06 92 1007.6
20260506140038 53 285 14.8 0.0 0.00 0.00 2.04 92 1007.8
20260506134534 57 356 11.3 0.0 0.00 0.00 1.96 85 1007.3
20260506133030 57 347 14.8 0.0 0.00 0.00 1.96 85 1007.3
20260506131529 56 198 18.2 0.0 0.00 0.00 1.96 85 1007.2
20260506130021 57 175 16.5 0.0 0.00 0.00 1.95 82 1006.8
20260506124517 58 256 16.5 0.0 0.00 0.00 1.95 81 1006.5
20260506123011 57 188 16.5 0.0 0.00 0.00 1.95 83 1006.8
20260506121506 57 353 17.4 0.0 0.00 0.00 1.95 83 1006.7
20260506120002 57 195 17.4 0.0 0.00 0.00 1.95 84 1007.2
20260506114558 56 354 16.5 0.0 0.00 0.00 1.95 86 1007.2
20260506113054 56 352 14.8 0.0 0.00 0.00 1.95 89 1007.3
20260506111551 55 189 17.4 0.0 0.00 0.00 1.95 89 1007.3
20260506110046 55 343 16.5 0.0 0.00 0.00 1.95 92 1007.7
20260506104541 55 192 15.6 0.0 0.00 0.00 1.95 95 1007.8
20260506103036 53 347 16.5 0.0 0.00 0.00 1.95 98 1007.7
20260506101532 53 347 14.8 0.0 0.00 0.00 1.95 100 1008.1
20260506100031 54 349 14.8 0.0 0.00 0.00 1.95 100 1008.1
20260506094523 54 188 15.6 0.0 0.00 0.00 1.95 100 1008.0
20260506093018 54 346 13.9 0.0 0.00 0.00 1.95 100 1007.7
20260506091514 54 350 13.9 0.0 0.00 0.00 1.95 100 1007.8
20260506090009 54 344 17.4 0.0 0.00 0.00 1.95 100 1007.5
20260506084505 54 189 16.5 0.0 0.00 0.00 1.95 100 1007.3
20260506083100 54 316 15.6 0.0 0.00 0.00 1.95 100 1007.2
20260506081611 54 188 13.9 0.0 0.00 0.00 1.95 100 1007.3
20260506073045 53 344 10.4 0.0 0.00 0.00 1.95 100 1007.4
20260506071539 53 195 7.0 0.0 0.00 0.00 1.95 100 1007.4
20260506061524 52 141 0.0 0.0 0.00 0.00 1.93 100 1007.6
20260506044556 51 181 0.0 0.0 0.00 0.00 1.90 100 1008.5
20260506043054 50 182 0.0 0.0 0.00 0.00 1.88 100 1008.6
20260506041559 51 179 1.7 0.0 0.00 0.00 1.81 100 1008.4
20260506040044 50 182 5.2 0.0 0.00 0.00 1.65 100 1008.4
20260506034549 50 343 3.5 0.0 0.00 0.00 1.41 100 1008.1
20260506033031 51 282 3.5 0.0 0.00 0.00 1.32 100 1008.2
20260506031527 49 284 7.0 0.0 0.00 0.00 1.11 100 1008.4
20260506030026 49 292 5.2 0.0 0.00 0.00 0.86 100 1008.5
20260506024519 49 312 0.0 0.0 0.00 0.00 0.63 100 1008.2
20260506023013 49 349 0.0 0.0 0.00 0.00 0.60 100 1008.0
20260506021510 49 349 0.9 0.0 0.00 0.00 0.60 100 1008.2
20260506020004 49 295 4.3 0.0 0.00 0.00 0.59 100 1008.8
20260506014601 50 275 6.1 0.0 0.00 0.00 0.53 100 1008.9
20260506013103 50 295 16.5 0.0 0.00 0.00 0.45 100 1008.9
20260506011554 52 280 8.7 0.0 0.00 0.00 0.15 98 1008.3
20260506010049 52 344 7.8 0.0 0.00 0.00 0.15 97 1008.5
20260506004544 52 349 5.2 0.0 0.00 0.00 0.15 97 1008.8
20260506003041 53 347 10.4 0.0 0.00 0.00 0.15 92 1008.7
20260506001537 52 271 10.4 0.0 0.00 0.00 0.13 94 1009.1
20260506000031 52 304 12.2 0.0 0.00 0.00 0.06 100 1009.1